Tracking 30922 objects as of 1-Jul-2025
HD Live streaming from Space Station
objects crossing your sky now

FALCON HEAVY DEB

Track FALCON HEAVY DEB now!


NORAD ID: 54222
Int'l Code: 2022-144D
Perigee: 36,182.4 km
Apogee: 36,207.8 km
Inclination: 4.8 °
Period: 1,456.6 minutes
Semi major axis: 42566 km
RCS: Unknown
Launch date: November 1, 2022
Source: United States (US)
Launch site: AIR FORCE EASTERN TEST RANGE (AFETR)

Note: This is SATELLITE DEBRIS
Your satellite tracking list
Your tracking list is empty




NASA's NSSDC Master Catalog

Two Line Element Set (TLE):
1 54222U 22144D   25180.42316298 -.00000201  00000-0  00000-0 0  9993
2 54222   4.8279  65.6423 0002987 214.1571 145.6761  0.98857011  8164
Source of the keplerian elements: AFSPC